AQI (18)

Current Conditions for Foresthill, CA. Sunny, Dry   
Visibility: 10 miles
Space WX Alerts: ALERT:  Geomagnetic K-index of 4 ( Latest Alert ) - Issue Time: 2020 Oct 21 0809 UTC

  Summary / Temperature 

Current Temperature
65.2°F
18.4°C
(24/hr Ago)
67.3°F
(Apparent temp)
60.9°F
Comfortable
Wind Chill Graphs
65.2°F 

65.2°F/ 18.4°C
 --- Virtual Temp: 66.7°F ---

 Temp Rate:

 24/hr Difference:

 Avg Running Temp:

 Todays High:

 Todays Low:

 Y-days High:

 Y-days Low:

 Todays WChill:

 Y-days WChill:

 Evapotranspiration:

+1.5°F/hr 

-2.1°F

62.8°F

65.2°F 9:46am

60.4°F 5:43am

84.2°F 1:54pm

60.9°F 5:56am

58.3°F 7:50am

60.6°F 5:35am

0.017 in

115' Above Ground

 Temperature:

 6'AGL VRS 115'AGL:

 Avg Running Temp:

 Humidity:

 Todays High:

 Todays Low:

 Y-days High:

 Y-days Low:

69.0°F 

+3.8°F

76.5°F

30% 

77.0°F 12:00am

69.0°F 9:44am

82.0°F 1:09pm

74.0°F 9:45am

Temp & Humidity Graphs

  Wind 

Wind Speed

 Calm

Gusting to

 9.0 mph

Wind from ESE

121°  ESE

Calm

 Avg speed:

 Wind Run:

 Peak Gust:

  2.0 mph 

15.0 miles

  16.0 mph 8:58am

  Almanac  

Moon age: 5 days,11 hours,56 minutes,31%

Waxing Crescent
30%
Illuminated
5 days in cycle

 Moonrise:

 Moonset:

 Sunrise:

 Sunset:

 Solar Noon:

1:01pm

10:26pm

7:20am

6:16pm

12:48pm

2min 24s less daylight tomorrow 

  Solar Radiation 

(Current Solar)
  390 W/m2 (95%)
(Todays High)
 390 W/m2@9:47am
Feels like: 72°F in the sun

Rain

 Rain Today:

 Rain Rate (/hr):

 Rain last hour:

 Rain Yesterday:

 This Month:

 Season Total:

65 Days Since Last Rain Day

0.00 in

0.000 in

0.00 in

0.00 in

0.00 in

0.01 in

Updated Time

Updated: 10/21/20  9:48am

(Updated  sec ago)

Humidity & Barometer

 Humidity:

 Wetbulb:

 Dew Point:

 Barometer:

32% 

52.3°F 

34.6°F 

29.864 inHg 

 Baro Trend:  Steady 
Northern Calif
Preparedness
Fire 
Level 

    UV Index  

(Current UV)
1.6  Low
(Todays High) @ 9:46am
1.6   Low

National Weather Service Forecast

Today

Today: Sunny
Sunny
Tonight

Tonight: Mostly Clear
Mostly Clear
Thursday

Thursday: Sunny
Sunny
Thursday
Night
Thursday Night: Mostly Clear
Mostly Clear
Friday

Friday: Sunny
Sunny
Friday
Night
Friday Night: Mostly Clear
Mostly Clear
Hi 79 °F ↓ Lo 57 °F ↑ Hi 74 °F ↓ Lo 55 °F Hi 72 °F Lo 53 °F

Foresthill Probe 2 Stats  
Foresthill Probe 2: is located on Thomas Street
at 3000 feet. The main Foresthill Weather site
is located on Melody ln at the 2860 foot elevation

Calm
65.6°F
18.7°C
Temp Rate:
+2.2°F
Calm
Gusting to
1.0 mph
(Humidity)
35%
Wind from SSW
198°  SSW
Updated: 21/10/20 - 09:48:23
 Todays High: 65.7°F 09:47
 Todays Low: 58.2°F 06:00
 Rain Today: 0.00 in
 Season Total: 0.01 in

Foresthill Wx: Monthly,Yearly, Highs and Lows 

Foresthill  
This Weather Data is coming from the main Foresthill
Weather site located on Melody ln at the 2860 foot
elevation
Not Foresthill Probe 2
Weather Data
Month
  High
Month
  Low
Year
High
Year
Low
Temp 94.7°F
10/1/20
52.2°F
10/11/20
101.8°F
8/15/20
28.3°F
2/3/20
Humidity 85%
10/11/20
9%
10/6/20
100%
1/8/20
6%
9/8/20
Heat Index 90.3°F
10/1/20
55.8°F
10/10/20
101.7°F
8/17/20
28.2°F
2/4/20
Wind Chill 94.7°F
10/1/20
50.1°F
10/11/20
101.8°F
8/15/20
14.7°F
2/3/20
Wind Gust 29 mph
10/16/20
0 mph
10/1/20
46 mph
2/9/20
0 mph
1/1/20
Barometer 30.17 in
10/12/20
29.83 in
10/21/20
30.59 in
1/5/20
29.57 in
6/28/20
ET 0.20 in
10/16/20
0.00 in
10/1/20
0.31 in
6/27/20
0.00 in
1/1/20
Dew Point 53.5°F
10/11/20
23.3°F
10/6/20
67.5°F
6/26/20
-2.6°F
2/3/20
Visible Satellite Pacific Satellite US Radar Satellite Imagery Sacramento,CA.  (click to enlarge)
NWS Weather Forecast - Summary
Updated: Wednesday, October 21, 2020 - 3:25am PDT
PERIODS OF RED FLAG CONDITIONS EXPECTED THROUGH FRIDAY AFTERNOON FOR GUSTY WIND AND LOW HUMIDITY
NWS Weather Forecast: Today and Tonight (Updated: Wed, 21-Oct-2020 3:43am PDT)
Today

Today: Sunny
Sunny

Hi 79 °F ↓
NWS forecast: Sunny. High near 79, with temperatures falling to around 76 in the afternoon. South southwest wind around 7 mph.
Tonight

Tonight: Mostly Clear
Mostly Clear

Lo 57 °F ↑
NWS forecast: Mostly clear. Low around 57, with temperatures rising to around 59 overnight. East northeast wind around 7 mph.
YR.NO 10 Day Weather forecast
Last update: 10/21/2020 @ 02:08
Next update: 10/21/2020 @ 08:08
Provided by: 22
      Temperature Precipitation Pressure Wind  
Today
10/21/2020
07:00 12:00 50°F   29.84 inHg Light breeze from east 4 mph
  12:00 18:00 79°F   29.83 inHg Light breeze from west-southwest 6 mph
  18:00 00:00 68°F   29.78 inHg Light air from south-southwest 3 mph
    (Click to enlarge)
meteogram

    Forecast for next 9 days

      Temperature Precip Pressure Wind  
Thursday
10/22/2020
00:00 06:00 52°F   29.81 inHg Light breeze from east-northeast 4 mph
  06:00 12:00 50°F   29.79 inHg Light breeze from east-northeast 5 mph
  12:00 18:00 77°F   29.82 inHg Light breeze from west-southwest 6 mph
  18:00 00:00 66°F   29.82 inHg Light air from west-southwest 3 mph
      Temperature Precip Pressure Wind  
Friday
10/23/2020
00:00 06:00 54°F   29.85 inHg Light breeze from east 7 mph
  06:00 12:00 50°F   29.84 inHg Light breeze from east 6 mph
  11:00 17:00 70°F   29.89 inHg Light breeze from west-southwest 4 mph
  17:00 23:00 68°F   29.88 inHg Light air from west 3 mph
  23:00 05:00 54°F   29.95 inHg Light air from east 2 mph
      Temperature Precip Pressure Wind  
Saturday
10/24/2020
05:00 11:00 46°F   29.93 inHg Light breeze from east 4 mph
  11:00 17:00 63°F   29.95 inHg Light breeze from south-southwest 5 mph
  17:00 23:00 63°F   29.89 inHg Light breeze from west-southwest 4 mph
  23:00 05:00 46°F   29.91 inHg Light breeze from east-northeast 4 mph
      Temperature Precip Pressure Wind  
Sunday
10/25/2020
05:00 11:00 41°F   29.88 inHg Light air from east 3 mph
  11:00 17:00 61°F   29.88 inHg Light breeze from west 5 mph
  17:00 23:00 61°F   29.82 inHg Light breeze from south 4 mph
  23:00 05:00 43°F   29.90 inHg Moderate breeze from east-northeast 17 mph
      Temperature Precip Pressure Wind  
Monday
10/26/2020
05:00 11:00 37°F   29.97 inHg Light breeze from northeast 4 mph
  11:00 17:00 50°F   30.03 inHg Moderate breeze from east-northeast 12 mph
  17:00 23:00 55°F   30.06 inHg Light breeze from north-northeast 6 mph
  23:00 05:00 41°F   30.12 inHg Light breeze from northeast 7 mph
      Temperature Precip Pressure Wind  
Tuesday
10/27/2020
05:00 11:00 43°F   30.07 inHg Light breeze from northeast 6 mph
  11:00 17:00 61°F   30.05 inHg Gentle breeze from east-northeast 10 mph
  17:00 23:00 64°F   29.99 inHg Gentle breeze from east-northeast 8 mph
  23:00 05:00 52°F   30.04 inHg Gentle breeze from east-northeast 9 mph
      Temperature Precip Pressure Wind  
Wednesday
10/28/2020
05:00 11:00 45°F   30.04 inHg Light breeze from east-northeast 5 mph
  11:00 17:00 63°F   30.06 inHg Light air from west-southwest 3 mph
  17:00 23:00 63°F   30.03 inHg Light breeze from west 4 mph
  23:00 05:00 39°F   30.09 inHg Light breeze from east-northeast 5 mph
      Temperature Precip Pressure Wind  
Thursday
10/29/2020
05:00 11:00 37°F   30.12 inHg Light breeze from east-northeast 4 mph
  11:00 17:00 64°F   30.15 inHg Light air from west 3 mph
  17:00 23:00 64°F   30.10 inHg Light breeze from west-southwest 4 mph
  23:00 05:00 41°F   30.14 inHg Light breeze from east-northeast 4 mph
      Temperature Precip Pressure Wind  
Friday
10/30/2020
05:00 11:00 39°F   30.11 inHg Light breeze from east 5 mph

NOAA Local Storm Report
1 MILE NORTH OF CHOTEAU   ( More )
DATE
10/19/2020
TIME
1:30 PM
COUNTY
TETON
STATE
MT
GEOGRAPHIC
47.82N 112.18W
SOURCE
TRAINED SPOTTER
SNOW MEASURED AT 14.0 INCH
storm total since friday night.
How Close Are We To this Month's Temperature Record ?
Updated Wednesday, Oct 21, 2020- 9:45:00 AM

Current Temperature: 65.2°F

October's High: Temperature Record 94.7°F - Set on Thu, Oct 1, 2020 - 2:42:52 PM
We are currently 29.5°F Less than this Month's record High

October's Low: Temperature Record 38.8°F - Set on Tue, Oct 23, 2012 - 11:59:00 PM
We are currently 26.4°F More than this Month's record Low

Weather History For Wednesday, October 21, 2020


On this Day - In Weather History ...
Data courtesy of weatherforyou.com
powered by Cumulus v1.9.3 (1059)
Ambient Weather VWS v14.00
Top Website Map Copyright © 2007 - 2020 Foresthillweather.com Never base important decisions on this or any weather information obtained from the Internet